When you browse on this site, cookies collect data to enhance your experience and personalize the content and advertising you see.
Visit our Privacy Policy to learn more. By continuing to use the site, you agree to this use of cookies and data.
  • In Hungary
  • List of Countries
  • For 7 days
  • Water Temperature
  • Satellite Maps
  • Weather Map
  • News
  • Weather Widgets
  • user-avatar
    Login

    Hourly Weather Palandöken

    Today, 21 February, Thursday

    Time Temperature Precipitation Wind Pressure Humidity
    00:00 -11°C° 0 mm 1 mps 599 mmHg 57%
    01:00 -11°C° 0 mm 1 mps 599 mmHg 59%
    02:00 -12°C° 0 mm 1 mps 599 mmHg 60%
    03:00 -12°C° 0 mm 1 mps 599 mmHg 62%
    04:00 -12°C° 0 mm 1 mps 599 mmHg 63%
    05:00 -12°C° 0 mm 1 mps 599 mmHg 65%
    06:00 -12°C° 0 mm 1 mps 599 mmHg 66%
    07:00 -11°C° 0 mm 1 mps 600 mmHg 68%
    08:00 -10°C° 0 mm 1 mps 600 mmHg 70%
    09:00 -9°C° 0 mm 1 mps 601 mmHg 71%
    10:00 -7°C° 0 mm 1 mps 601 mmHg 72%
    11:00 -6°C° 0 mm 1 mps 601 mmHg 73%
    12:00 -3°C° 0 mm 1 mps 602 mmHg 74%
    13:00 -3°C° 0 mm 1 mps 601 mmHg 76%
    14:00 -2°C° 0 mm 1 mps 601 mmHg 79%
    15:00 -4°C° 0 mm 2 mps 601 mmHg 81%
    16:00 -4°C° 0 mm 1 mps 600 mmHg 82%
    17:00 -7°C° 0 mm 1 mps 600 mmHg 82%
    18:00 -9°C° 0 mm 1 mps 599 mmHg 83%
    19:00 -9°C° 0 mm 1 mps 599 mmHg 83%
    20:00 -10°C° 0 mm 1 mps 600 mmHg 82%
    21:00 -11°C° 0 mm 1 mps 600 mmHg 82%
    22:00 -11°C° 0 mm 1 mps 600 mmHg 82%
    23:00 -11°C° 0 mm 1 mps 600 mmHg 83%

    Tomorrow, 22 February, Friday

    Time Temperature Precipitation Wind Pressure Humidity
    00:00 -11°C° 0 mm 1 mps 600 mmHg 83%
    01:00 -11°C° 0 mm 1 mps 600 mmHg 85%
    02:00 -11°C° 0 mm 1 mps 600 mmHg 86%
    03:00 -11°C° 0 mm 1 mps 600 mmHg 87%
    04:00 -11°C° 0 mm 1 mps 600 mmHg 88%
    05:00 -11°C° 0 mm 1 mps 600 mmHg 89%
    06:00 -12°C° 0 mm 1 mps 599 mmHg 90%
    07:00 -11°C° 0 mm 1 mps 600 mmHg 89%
    08:00 -10°C° 0 mm 1 mps 600 mmHg 89%
    09:00 -9°C° 0 mm 1 mps 601 mmHg 88%
    10:00 -7°C° 0 mm 1 mps 601 mmHg 86%
    11:00 -6°C° 0 mm 1 mps 601 mmHg 84%
    12:00 -3°C° 0 mm 1 mps 602 mmHg 82%
    13:00 -3°C° 0 mm 1 mps 601 mmHg 83%
    14:00 -2°C° 0 mm 1 mps 601 mmHg 84%
    15:00 -2°C° 0 mm 1 mps 601 mmHg 85%
    16:00 -3°C° 0 mm 1 mps 600 mmHg 87%
    17:00 -6°C° 0 mm 1 mps 599 mmHg 88%
    18:00 -7°C° 0 mm 1 mps 599 mmHg 90%
    19:00 -8°C° 0 mm 1 mps 599 mmHg 90%
    20:00 -9°C° 0 mm 2 mps 599 mmHg 90%
    21:00 -10°C° 0 mm 2 mps 599 mmHg 90%
    22:00 -10°C° 0 mm 2 mps 599 mmHg 90%
    23:00 -12°C° 0 mm 2 mps 599 mmHg 91%

    Day after tomorrow, 23 February, Saturday

    Time Temperature Precipitation Wind Pressure Humidity
    00:00 -13°C° 0 mm 2 mps 598 mmHg 91%
    01:00 -12°C° 0 mm 2 mps 598 mmHg 91%
    02:00 -10°C° 0 mm 1 mps 598 mmHg 91%
    03:00 -10°C° 0 mm 1 mps 598 mmHg 91%
    04:00 -10°C° 0 mm 1 mps 598 mmHg 91%
    05:00 -9°C° 0 mm 1 mps 599 mmHg 90%
    06:00 -9°C° 0 mm 1 mps 599 mmHg 90%
    07:00 -8°C° 0.1 mm 1 mps 599 mmHg 90%
    08:00 -7°C° 0.1 mm 1 mps 600 mmHg 90%
    09:00 -6°C° 0.1 mm 1 mps 600 mmHg 89%
    10:00 -3°C° 0.2 mm 1 mps 601 mmHg 89%
    11:00 -2°C° 0.2 mm 1 mps 601 mmHg 88%
    12:00 -1°C° 0.2 mm 1 mps 601 mmHg 88%
    13:00 -2°C° 0.2 mm 2 mps 601 mmHg 88%
    14:00 -2°C° 0.2 mm 2 mps 601 mmHg 88%
    15:00 -2°C° 0.2 mm 2 mps 601 mmHg 88%
    16:00 -1°C° 0.1 mm 1 mps 601 mmHg 89%
    17:00 -2°C° 0.1 mm 1 mps 600 mmHg 90%
    18:00 -3°C° 0.1 mm 1 mps 600 mmHg 91%
    19:00 -4°C° 0 mm 1 mps 600 mmHg 91%
    20:00 -4°C° 0 mm 1 mps 600 mmHg 91%
    21:00 -6°C° 0 mm 1 mps 600 mmHg 91%
    22:00 -6°C° 0 mm 1 mps 600 mmHg 91%
    23:00 -6°C° 0 mm 1 mps 600 mmHg 91%

    24 February, Sunday

    Time Temperature Precipitation Wind Pressure Humidity
    00:00 -7°C° 0 mm 1 mps 600 mmHg 90%
    01:00 -6°C° 0.1 mm 1 mps 601 mmHg 91%
    02:00 -6°C° 0.1 mm 1 mps 601 mmHg 92%
    03:00 -4°C° 0.1 mm 1 mps 601 mmHg 92%
    04:00 -4°C° 0.1 mm 1 mps 601 mmHg 92%
    05:00 -4°C° 0.1 mm 1 mps 601 mmHg 92%
    06:00 -4°C° 0.1 mm 1 mps 601 mmHg 92%
    07:00 -4°C° 0 mm 1 mps 601 mmHg 91%
    08:00 -3°C° 0 mm 1 mps 602 mmHg 91%
    09:00 -3°C° 0 mm 1 mps 602 mmHg 90%
    10:00 -3°C° 0.1 mm 2 mps 603 mmHg 90%
    11:00 -2°C° 0.1 mm 2 mps 603 mmHg 89%
    12:00 -1°C° 0.1 mm 2 mps 603 mmHg 88%
    13:00 -1°C° 0.1 mm 2 mps 603 mmHg 88%
    14:00 -1°C° 0.1 mm 2 mps 603 mmHg 88%
    15:00 +1°C° 0.1 mm 2 mps 603 mmHg 87%
    16:00 -2°C° 0 mm 2 mps 602 mmHg 88%
    17:00 -2°C° 0 mm 1 mps 602 mmHg 88%
    18:00 -3°C° 0 mm 1 mps 601 mmHg 89%
    19:00 -3°C° 0 mm 1 mps 601 mmHg 90%
    20:00 -4°C° 0 mm 1 mps 602 mmHg 90%
    21:00 -4°C° 0 mm 1 mps 602 mmHg 91%
    22:00 -4°C° 0 mm 1 mps 602 mmHg 91%
    23:00 -6°C° 0 mm 1 mps 602 mmHg 91%

    25 February, Monday

    Time Temperature Precipitation Wind Pressure Humidity
    00:00 -6°C° 0 mm 1 mps 602 mmHg 91%
    01:00 -6°C° 0.1 mm 1 mps 602 mmHg 91%
    02:00 -4°C° 0.1 mm 1 mps 602 mmHg 92%
    03:00 -4°C° 0.1 mm 1 mps 602 mmHg 92%
    04:00 -4°C° 0 mm 1 mps 601 mmHg 92%
    05:00 -4°C° 0 mm 1 mps 601 mmHg 92%
    06:00 -6°C° 0 mm 1 mps 601 mmHg 92%
    07:00 -4°C° 0.1 mm 1 mps 601 mmHg 91%
    08:00 -3°C° 0.1 mm 1 mps 601 mmHg 91%
    09:00 -2°C° 0.1 mm 1 mps 601 mmHg 91%
    10:00 -3°C° 0.3 mm 2 mps 601 mmHg 91%
    11:00 -2°C° 0.3 mm 2 mps 600 mmHg 91%
    12:00 -1°C° 0.3 mm 2 mps 600 mmHg 92%
    13:00 -1°C° 0.4 mm 2 mps 599 mmHg 91%
    14:00 -1°C° 0.4 mm 2 mps 599 mmHg 91%
    15:00 -1°C° 0.4 mm 2 mps 598 mmHg 90%
    16:00 -1°C° 0.5 mm 2 mps 597 mmHg 91%
    17:00 -2°C° 0.5 mm 2 mps 597 mmHg 91%
    18:00 -2°C° 0.5 mm 2 mps 596 mmHg 92%
    19:00 -3°C° 0.4 mm 2 mps 596 mmHg 92%
    20:00 -3°C° 0.4 mm 2 mps 595 mmHg 92%
    21:00 -3°C° 0.4 mm 2 mps 595 mmHg 92%
    22:00 -3°C° 0.7 mm 2 mps 595 mmHg 93%
    23:00 -2°C° 0.7 mm 1 mps 594 mmHg 93%

    26 February, Tuesday

    Time Temperature Precipitation Wind Pressure Humidity
    00:00 -2°C° 0.7 mm 1 mps 594 mmHg 94%
    01:00 -2°C° 0.4 mm 1 mps 594 mmHg 93%
    02:00 -4°C° 0.4 mm 2 mps 593 mmHg 93%
    03:00 -4°C° 0.4 mm 2 mps 593 mmHg 93%
    04:00 -2°C° 1.2 mm 1 mps 593 mmHg 93%
    05:00 -1°C° 1.2 mm 1 mps 593 mmHg 94%
    06:00 -1°C° 1.2 mm 1 mps 592 mmHg 95%
    07:00 -1°C° 1.1 mm 1 mps 592 mmHg 94%
    08:00 0°C° 1.1 mm 1 mps 592 mmHg 93%
    09:00 -1°C° 1.1 mm 0 mps 593 mmHg 93%
    10:00 +1°C° 0.3 mm 1 mps 593 mmHg 92%
    11:00 -1°C° 0.3 mm 2 mps 593 mmHg 92%
    12:00 0°C° 0.3 mm 3 mps 593 mmHg 92%
    13:00 +1°C° 0.4 mm 2 mps 593 mmHg 93%
    14:00 +1°C° 0.4 mm 2 mps 593 mmHg 94%
    15:00 +2°C° 0.4 mm 1 mps 593 mmHg 95%
    16:00 +1°C° 0.6 mm 1 mps 593 mmHg 94%
    17:00 +1°C° 0.6 mm 1 mps 593 mmHg 93%
    18:00 +1°C° 0.6 mm 1 mps 593 mmHg 92%
    19:00 0°C° 0.2 mm 1 mps 593 mmHg 92%
    20:00 0°C° 0.2 mm 1 mps 594 mmHg 92%
    21:00 -3°C° 0.2 mm 2 mps 594 mmHg 92%
    22:00 -4°C° 0.2 mm 2 mps 594 mmHg 92%
    23:00 -4°C° 0.2 mm 2 mps 594 mmHg 92%
    Show more